Location: B�rgermoos
(47.6500°N, 9.0667°E)
Time: 03:38:08
(UTC+00:00)

Vanguard 2 Rocket - Pass Details

Date: 06 August 2021
Orbit: 556 x 3323 km, 32.9° (Epoch: 27 September)

Event Time Altitude Azimuth Distance (km) Brightness Sun altitude
Rises 07:31:23 0° 239° (WSW) 2,892 9.1 32.6°
Reaches altitude 10° 07:35:48 10° 195° (SSW) 1,830 8.6 33.3°
Maximum altitude 07:36:26 10° 186° (S) 1,806 8.6 33.4°
Drops below altitude 10° 07:37:04 10° 176° (S) 1,826 8.8 33.5°
Sets 07:41:26 0° 132° (SE) 2,855 10.3 34.2°
